Home   Weather   Township of Paris   Past weeks
Flag for USA

Past Weather in Township of Paris, Kansas, USA — Yesterday and Last 2 Weeks

Now
68 °F

Clear.


Feels Like: 68 °F
Forecast: 85 / 65 °F
Wind: 12 mph from Southwest

Location: Lee's Summit Municipal Airport
Current Time: Sep 26, 2020 at 3:17:55 am
Latest Report: Sep 26, 2020 at 1:53 am
Visibility: 10 mi
Pressure29.80 "Hg
Humidity: 82%
Dew Point: 62 °F
Location of Township of ParisLocation

Past Weather in Township of Paris — Graph

°F

Township of Paris Temperature Yesterday

Maximum temperature yesterday: 86 °F (at 2:53 pm)
Minimum temperature yesterday: 62 °F (at 5:53 am)
Average temperature yesterday: 73 °F

High & Low Weather Summary for the Past Weeks

 TemperatureHumidityPressure
High86 °F (Sep 25, 2:53 pm)93% (Sep 11, 2:29 am)30.33 "Hg (Sep 11, 2:29 am)
Low53 °F (Sep 18, 6:53 am)43% (Sep 20, 2:53 pm)29.79 "Hg (Sep 25, 4:53 pm)
Average67 °F72%30.11 "Hg
* Reported Sep 11 1:25 am — Sep 26 1:53 am, Township of Paris. Weather by CustomWeather, © 2020

Note: Actual official high and low records may vary slightly from our data, if they occured in-between our weather recording intervals... More about our weather records

Township of Paris Weather History for the Previous 24 Hours

Scroll right to see more
 ConditionsComfort  
Time TempWeatherWind HumidityBarometerVisibility
1:53 am
Sat, Sep 26
68 °FClear.12 mph82%29.80 "Hg10 mi
12:53 am70 °FClear.15 mph76%29.80 "Hg10 mi
11:53 pm
Fri, Sep 25
71 °FClear.14 mph73%29.81 "Hg10 mi
10:53 pm73 °FClear.16 mph69%29.82 "Hg10 mi
9:53 pm74 °FClear.15 mph69%29.82 "Hg10 mi
8:53 pm76 °FClear.15 mph62%29.82 "Hg10 mi
7:53 pm78 °FClear.14 mph56%29.80 "Hg10 mi
6:53 pm80 °FSunny.10 mph52%29.80 "Hg10 mi
5:53 pm83 °FSunny.14 mph48%29.80 "Hg10 mi
4:53 pm86 °FSunny.10 mph45%29.79 "Hg10 mi
3:53 pm86 °FSunny.12 mph46%29.80 "Hg10 mi
2:53 pm86 °FSunny.17 mph46%29.81 "Hg10 mi
1:53 pm84 °FSunny.15 mph49%29.83 "Hg10 mi
12:53 pm82 °FSunny.14 mph55%29.85 "Hg10 mi
11:53 am79 °FSunny.15 mph60%29.87 "Hg10 mi
10:53 am75 °FSunny.14 mph64%29.89 "Hg10 mi
9:53 am71 °FSunny.12 mph71%29.90 "Hg10 mi
8:53 am66 °FSunny.13 mph78%29.89 "Hg10 mi
7:53 am62 °FSunny.9 mph80%29.89 "Hg10 mi
6:53 am62 °FClear.9 mph78%29.89 "Hg10 mi
5:53 am62 °FClear.8 mph78%29.88 "Hg10 mi
4:53 am63 °FClear.8 mph75%29.88 "Hg10 mi
3:53 am63 °FClear.8 mph75%29.86 "Hg10 mi
Weather by CustomWeather, © 2020

See weather overview